Location: Pl�tzky
(52.0521°N, 11.8020°E)
Time: 06:58:11
(UTC+00:00)

Cosmos 1151 Rocket - Pass Details

Date: 22 November 2019
Orbit: 593 x 615 km, 82.5° (Epoch: 06 December)

Event Time Altitude Azimuth Distance (km) Brightness Sun altitude
Rises 16:21:23 0° 167° (SSE) 2,871 6.6 -10.2°
Reaches altitude 10° 16:23:42 10° 159° (SSE) 1,973 5.6 -10.6°
Maximum altitude 16:27:44 37° 92° (E) 957 3.6 -11.2°
Drops below altitude 10° 16:31:47 10° 25° (NNE) 1,990 5.3 -11.8°
Enters shadow 16:33:24 - 19° (NNE) 2,609 5.9 -12.0°
